Location: Arpaise
(41.0333°N, 14.7333°E)
Time: 16:40:46
(UTC+00:00)

Lacrosse 5 rocket - Pass Details

Date: 05 July 2020
Orbit: 465 x 632 km, 57.0° (Epoch: 11 August)

Event Time Altitude Azimuth Distance (km) Brightness Sun altitude
Rises 22:56:55 0° 323° (NW) 2,698 5.7 -26.3°
Reaches altitude 10° 22:59:54 10° 346° (NNW) 1,765 4.9 -26.3°
Maximum altitude 23:02:24 16° 25° (NNE) 1,398 4.1 -26.3°
Drops below altitude 10° 23:04:50 10° 64° (ENE) 1,703 4.1 -26.3°
Enters shadow 23:06:17 - 79° (ENE) 2,104 4.4 -26.3°
